Location: Uhersky Brod
(49.0330°N, 17.6500°E)
Time: 20:38:53
(UTC+02:00)

ISS - Visible Passes

Search period start: 20 July 2025 00:00
Search period end: 30 July 2025 00:00
Orbit: 415 x 418 km, 51.6° (Epoch: 20 July)

Date Brightness Start Highest point End Pass type
(mag) Time Alt. Az. Time Alt. Az. Time Alt. Az.
20 Jul -3.2 22:46:47 10° WNW 22:49:59 42° SSW 22:50:52 33° S visible
21 Jul -3.6 21:58:22 10° WNW 22:01:41 62° SSW 22:04:06 17° SE visible
21 Jul -1.3 23:36:13 10° WSW 23:36:59 12° WSW 23:36:59 12° WSW visible
22 Jul -2.1 22:47:11 10° W 22:49:44 20° SW 22:50:14 19° SSW visible
23 Jul -2.5 21:58:31 10° W 22:01:30 30° SW 22:03:32 16° SSE visible
25 Jul -1.4 21:59:13 10° WSW 22:01:04 14° SW 22:02:54 10° S visible
